EW9662 Weather Reports


time (UTC)temp
C
wind
direction
speed
KPH
gust
KPH
rain 1hr
cm
rain 24hr
cm
rain mn
cm
humidity
%
barometer
mb
20260507143512 13 218 4.8 12.9 0.00 0.71 0.03 55 1008.6
20260507143027 13 99 3.2 14.5 0.00 0.71 0.03 54 1008.7
20260507142509 14 128 4.8 14.5 0.00 0.71 0.03 54 1008.6
20260507142013 13 157 1.6 9.7 0.00 0.71 0.03 55 1008.6
20260507141533 13 121 1.6 16.1 0.00 0.71 0.03 55 1008.7
20260507141008 14 107 3.2 16.1 0.00 0.71 0.03 59 1008.6
20260507140505 13 68 3.2 16.1 0.00 0.71 0.03 59 1008.6
20260507140003 13 162 1.6 11.3 0.00 0.71 0.03 58 1008.5
20260507135503 14 170 0.0 14.5 0.00 0.71 0.03 60 1008.6
20260507135006 14 111 6.4 14.5 0.00 0.71 0.03 58 1008.5
20260507134520 14 115 1.6 11.3 0.00 0.71 0.03 60 1008.6
20260507134002 13 93 3.2 11.3 0.00 0.71 0.03 61 1008.6
20260507133506 13 94 4.8 14.5 0.00 0.71 0.03 62 1008.5
20260507133019 13 93 4.8 14.5 0.00 0.71 0.03 63 1008.5
20260507132503 13 198 0.0 11.3 0.00 0.71 0.03 65 1008.6
20260507132003 13 125 3.2 11.3 0.00 0.71 0.03 64 1008.7
20260507131514 13 132 3.2 11.3 0.00 0.71 0.03 63 1008.7
20260507131009 13 112 3.2 11.3 0.00 0.71 0.03 66 1008.8
20260507130503 12 132 3.2 14.5 0.00 0.71 0.03 66 1008.8
20260507130011 12 198 4.8 14.5 0.00 0.71 0.03 64 1008.7
20260507125506 12 163 3.2 12.9 0.00 0.71 0.03 64 1008.7
20260507125006 12 161 1.6 12.9 0.00 0.71 0.03 66 1008.7
20260507124506 12 59 6.4 12.9 0.00 0.71 0.03 65 1008.7
20260507124006 12 119 3.2 12.9 0.00 0.71 0.03 66 1008.8
20260507123509 12 94 3.2 9.7 0.00 0.71 0.03 65 1008.8
20260507123006 12 111 0.0 12.9 0.00 0.71 0.03 70 1008.8
20260507122503 12 155 0.0 12.9 0.00 0.71 0.03 69 1008.9
20260507122006 11 162 1.6 8.0 0.00 0.71 0.03 69 1008.9
20260507121524 11 80 3.2 9.7 0.00 0.71 0.03 70 1008.9
20260507121004 11 123 4.8 9.7 0.00 0.71 0.03 69 1008.9
20260507120505 11 94 0.0 6.4 0.00 0.71 0.03 74 1008.8
20260507120021 11 160 0.0 8.0 0.00 0.71 0.03 72 1008.9
20260507115503 11 165 0.0 8.0 0.00 0.71 0.03 75 1008.9
20260507115003 10 117 3.2 6.4 0.00 0.71 0.03 75 1008.9
20260507114517 10 112 1.6 6.4 0.00 0.71 0.03 77 1008.9
20260507114006 10 98 1.6 4.8 0.00 0.71 0.03 77 1008.8
20260507113502 10 134 0.0 4.8 0.00 0.71 0.03 79 1008.6
20260507113014 10 111 0.0 6.4 0.00 0.71 0.03 80 1008.7
20260507112506 10 148 0.0 6.4 0.00 0.71 0.03 81 1008.7
20260507112003 9 91 0.0 4.8 0.00 0.71 0.03 81 1008.8
20260507111511 9 116 0.0 0.0 0.00 0.71 0.03 82 1008.7
20260507111006 9 116 0.0 0.0 0.00 0.71 0.03 84 1008.7
20260507110510 8 116 0.0 0.0 0.00 0.71 0.03 83 1008.6
20260507110006 8 116 0.0 0.0 0.00 0.71 0.03 84 1008.6
20260507105509 8 116 0.0 0.0 0.00 0.71 0.03 85 1008.6
20260507105007 8 116 0.0 0.0 0.00 0.71 0.03 84 1008.5
20260507104506 8 116 0.0 0.0 0.00 0.71 0.03 83 1008.5
20260507104005 8 116 0.0 0.0 0.00 0.71 0.03 83 1008.7
20260507103509 8 116 0.0 0.0 0.00 0.71 0.03 84 1008.3
20260507103029 8 116 0.0 1.6 0.00 0.71 0.03 83 1008.2
20260507102504 8 116 0.0 1.6 0.00 0.71 0.03 83 1007.9
20260507102006 8 115 0.0 1.6 0.00 0.71 0.03 84 1008.0
20260507101532 8 116 0.0 3.2 0.00 0.71 0.03 83 1007.8
20260507101011 8 115 0.0 3.2 0.00 0.71 0.03 83 1008.0
20260507100504 8 151 0.0 3.2 0.00 0.71 0.03 84 1007.9
20260507100021 8 151 1.6 3.2 0.00 0.71 0.03 84 1007.9
20260507095507 8 150 0.0 0.0 0.00 0.71 0.03 86 1007.9
20260507095004 8 150 0.0 0.0 0.00 0.71 0.03 87 1008.0
20260507094514 8 150 0.0 0.0 0.00 0.71 0.03 87 1007.9
20260507094010 8 150 0.0 0.0 0.00 0.71 0.03 87 1008.0
20260507093508 8 150 0.0 1.6 0.00 0.71 0.03 86 1007.9
20260507093010 8 150 0.0 1.6 0.00 0.71 0.03 84 1008.3
20260507092506 8 148 0.0 3.2 0.00 0.71 0.03 85 1008.3
20260507092006 8 144 0.0 3.2 0.00 0.71 0.03 85 1008.1
20260507091508 8 148 0.0 3.2 0.00 0.71 0.03 85 1008.2
20260507091003 8 145 0.0 1.6 0.00 0.71 0.03 86 1008.3
20260507090507 8 145 0.0 3.2 0.00 0.71 0.03 85 1008.3
20260507090024 8 139 1.6 3.2 0.00 0.71 0.03 85 1008.4
20260507085503 8 94 0.0 1.6 0.00 0.71 0.03 85 1008.3
20260507085007 8 136 0.0 1.6 0.00 0.71 0.03 86 1008.6
20260507084522 8 136 0.0 1.6 0.00 0.71 0.03 87 1008.6
20260507084012 8 136 0.0 1.6 0.00 0.71 0.03 87 1008.3
20260507083505 8 136 0.0 3.2 0.03 0.71 0.03 87 1008.2
20260507083020 8 137 0.0 3.2 0.03 0.71 0.03 86 1008.2
20260507082507 8 109 0.0 1.6 0.03 0.71 0.03 87 1008.3
20260507082005 8 109 0.0 1.6 0.03 0.71 0.03 88 1008.1
20260507081516 8 109 0.0 1.6 0.03 0.71 0.03 88 1008.0
20260507081007 8 109 0.0 1.6 0.03 0.71 0.03 89 1008.3
20260507080510 8 109 0.0 1.6 0.03 0.71 0.03 89 1008.2
20260507080015 8 109 0.0 1.6 0.03 0.71 0.03 88 1008.2
20260507075506 8 109 0.0 0.0 0.03 0.71 0.03 88 1008.3
20260507075009 8 109 0.0 0.0 0.03 0.71 0.03 87 1008.1
20260507074511 8 109 0.0 1.6 0.03 0.71 0.03 87 1008.0
20260507074004 8 109 0.0 1.6 0.03 0.71 0.03 85 1008.1
20260507073506 9 109 0.0 1.6 0.00 0.69 0.00 85 1008.3
20260507073024 9 109 0.0 1.6 0.00 0.69 0.00 82 1008.3
20260507072506 9 140 0.0 8.0 0.00 0.69 0.00 82 1008.3
20260507072007 9 140 0.0 8.0 0.00 0.69 0.00 83 1008.3
20260507071525 9 140 0.0 4.8 0.00 0.69 0.00 84 1008.1
20260507071002 9 169 0.0 11.3 0.00 0.69 0.00 82 1007.7
20260507070507 10 164 1.6 11.3 0.00 0.69 0.00 83 1007.5
20260507070038 10 114 1.6 4.8 0.00 0.69 0.00 83 1007.5
20260507065510 10 135 1.6 3.2 0.00 0.69 0.00 85 1007.5
20260507065006 10 132 0.0 3.2 0.00 0.69 0.00 85 1007.4
20260507064520 10 118 0.0 3.2 0.00 0.69 0.00 87 1007.5
20260507064008 10 112 0.0 1.6 0.00 0.69 0.00 87 1007.3
20260507063510 10 112 0.0 1.6 0.00 0.69 0.00 86 1007.3
20260507063017 10 112 0.0 1.6 0.00 0.69 0.00 85 1007.2
20260507062510 10 112 0.0 3.2 0.00 0.69 0.00 85 1007.6
20260507062009 10 111 0.0 3.2 0.00 0.69 0.00 84 1007.7
20260507061514 10 123 0.0 4.8 0.00 0.69 0.00 85 1007.6
20260507061006 10 138 0.0 4.8 0.00 0.69 0.00 85 1007.5
20260507060509 10 117 0.0 3.2 0.00 0.69 0.00 85 1007.5
20260507060027 10 148 1.6 3.2 0.00 0.69 0.00 87 1007.5
20260507055506 10 102 0.0 3.2 0.00 0.69 0.00 88 1007.6
20260507055011 10 102 0.0 3.2 0.00 0.69 0.00 89 1007.6
20260507054526 10 148 0.0 1.6 0.00 0.69 0.00 88 1007.5
20260507054004 10 148 0.0 1.6 0.00 0.69 0.00 87 1007.7
20260507053508 11 148 0.0 1.6 0.00 0.69 0.00 87 1007.9
20260507053026 11 148 0.0 3.2 0.00 0.69 0.00 87 1008.0
20260507052510 11 112 0.0 3.2 0.00 0.69 0.00 88 1008.2
20260507052007 11 111 0.0 3.2 0.00 0.69 0.00 90 1008.2
20260507051522 11 84 0.0 3.2 0.00 0.69 0.00 89 1007.8
20260507051008 11 105 0.0 1.6 0.00 0.69 0.00 89 1007.8
20260507050506 11 129 0.0 1.6 0.00 0.69 0.00 89 1007.7
20260507050028 11 159 0.0 0.0 0.00 0.69 0.00 89 1008.1
20260507045507 11 159 0.0 0.0 0.00 0.69 0.00 89 1008.1
20260507045007 11 159 0.0 0.0 0.00 0.69 0.00 88 1007.8
20260507044518 11 97 0.0 3.2 0.00 0.69 0.00 89 1007.9
20260507044010 11 87 0.0 3.2 0.03 0.69 0.00 88 1007.7
20260507043507 12 87 0.0 9.7 0.05 0.69 0.00 88 1007.7
20260507043028 12 107 0.0 9.7 0.05 0.69 0.00 88 1007.7
20260507042508 12 105 0.0 3.2 0.05 0.69 0.00 91 1007.6
20260507042014 12 135 0.0 1.6 0.05 0.69 0.00 91 1007.5
20260507041527 12 135 0.0 3.2 0.05 0.69 0.00 91 1007.5
20260507041004 12 135 0.0 3.2 0.05 0.69 0.00 91 1007.6
20260507040509 12 90 0.0 1.6 0.05 0.69 0.00 91 1007.7
20260507040027 12 90 0.0 1.6 0.05 0.69 0.00 91 1007.7
20260507035508 12 94 0.0 0.0 0.05 0.69 0.69 90 1007.7
20260507035008 13 95 0.0 1.6 0.05 0.69 0.69 90 1007.6
20260507034525 13 95 0.0 4.8 0.05 0.69 0.69 89 1007.7
20260507034010 13 115 0.0 4.8 0.03 0.66 0.66 89 1007.3
20260507033506 13 98 0.0 3.2 0.00 0.64 0.64 89 1007.5
20260507033031 13 98 0.0 3.2 0.00 0.64 0.64 88 1007.4
20260507032513 13 102 0.0 4.8 0.00 0.64 0.64 89 1007.3
20260507032010 13 101 0.0 4.8 0.00 0.64 0.64 89 1007.2
20260507031527 13 106 0.0 3.2 0.00 0.64 0.64 90 1007.1
20260507031012 13 84 0.0 3.2 0.00 0.64 0.64 90 1006.9
20260507030510 13 148 0.0 3.2 0.00 0.64 0.64 90 1006.8
20260507030018 14 123 0.0 3.2 0.00 0.64 0.64 89 1006.8
20260507025508 14 131 0.0 3.2 0.00 0.64 0.64 89 1006.6
20260507025013 14 173 0.0 9.7 0.00 0.64 0.64 89 1006.6
20260507024529 14 132 1.6 12.9 0.00 0.64 0.64 89 1006.5
20260507024007 14 123 3.2 12.9 0.00 0.64 0.64 89 1006.5
20260507023509 15 124 3.2 8.0 0.00 0.64 0.64 90 1006.7
20260507023026 15 117 1.6 16.1 0.00 0.64 0.64 91 1006.6
20260507022507 15 92 3.2 16.1 0.00 0.64 0.64 92 1006.6
20260507022008 15 117 3.2 16.1 0.00 0.64 0.64 93 1006.7
20260507021526 15 57 1.6 8.0 0.00 0.64 0.64 93 1006.6
20260507021008 15 92 0.0 4.8 0.00 0.64 0.64 93 1006.4
20260507020508 15 90 0.0 6.4 0.00 0.64 0.64 93 1006.4
20260507020026 15 111 1.6 6.4 0.00 0.64 0.64 93 1006.2
20260507015514 15 94 1.6 4.8 0.00 0.64 0.64 93 1006.1
20260507015010 15 86 0.0 6.4 0.00 0.64 0.64 93 1006.2
20260507014527 15 96 1.6 9.7 0.00 0.64 0.64 93 1006.4
20260507014010 15 94 1.6 9.7 0.00 0.64 0.64 93 1006.4
20260507013508 15 83 3.2 11.3 0.00 0.64 0.64 93 1006.1
20260507013025 15 88 1.6 11.3 0.00 0.64 0.64 92 1006.1
20260507012510 15 82 1.6 8.0 0.00 0.64 0.64 92 1006.2
20260507012009 15 93 3.2 8.0 0.00 0.64 0.64 92 1006.2
20260507011534 15 99 0.0 3.2 0.00 0.64 0.64 92 1006.3
20260507011009 15 80 1.6 6.4 0.00 0.64 0.64 92 1006.4
20260507010510 15 98 1.6 6.4 0.03 0.64 0.64 92 1006.3
20260507010038 15 85 1.6 9.7 0.03 0.64 0.64 92 1006.3
20260507005508 15 93 1.6 12.9 0.03 0.64 0.64 92 1006.4
20260507005003 15 107 4.8 12.9 0.03 0.64 0.64 92 1006.4
20260507004508 15 101 3.2 12.9 0.03 0.64 0.64 92 1006.3
20260507004007 15 96 3.2 12.9 0.03 0.64 0.64 92 1006.2
20260507003506 15 94 1.6 9.7 0.03 0.64 0.64 92 1006.2
20260507003007 15 25 1.6 9.7 0.03 0.64 0.64 92 1006.2
20260507002506 15 74 3.2 11.3 0.03 0.64 0.64 92 1006.1
20260507002007 15 104 1.6 11.3 0.03 0.64 0.64 92 1006.1
20260507001503 15 110 3.2 12.9 0.03 0.64 0.64 92 1006.0
20260507001004 15 83 3.2 12.9 0.03 0.64 0.64 92 1006.0
20260507000507 15 84 3.2 12.9 0.00 0.61 0.61 92 1005.9
20260507000022 15 94 1.6 12.9 0.00 0.61 0.61 92 1005.9
20260506235504 15 119 0.0 11.3 0.00 0.61 0.61 92 1006.0
20260506235006 15 94 1.6 11.3 0.03 0.61 0.61 92 1006.0
20260506234520 15 87 3.2 12.9 0.05 0.61 0.61 92 1006.0
20260506234003 15 118 3.2 12.9 0.08 0.61 0.61 92 1005.9
20260506233507 15 94 1.6 12.9 0.10 0.61 0.61 92 1005.8
20260506233016 15 96 3.2 9.7 0.10 0.61 0.61 92 1005.9
20260506232508 15 90 3.2 11.3 0.10 0.61 0.61 92 1005.9
20260506232003 15 104 3.2 11.3 0.13 0.61 0.61 92 1005.8
20260506231514 15 94 3.2 12.9 0.15 0.61 0.61 92 1005.8
20260506231007 15 96 4.8 12.9 0.15 0.61 0.61 93 1005.9
20260506230504 15 119 1.6 9.7 0.18 0.61 0.61 93 1005.8
20260506230010 15 96 0.0 9.7 0.18 0.61 0.61 93 1005.8
20260506225508 15 115 3.2 9.7 0.18 0.61 0.61 92 1005.9
20260506225011 15 83 3.2 9.7 0.18 0.58 0.58 92 1005.9
20260506224508 15 102 1.6 12.9 0.18 0.56 0.56 92 1006.0
20260506224003 15 104 1.6 12.9 0.15 0.53 0.53 92 1006.0
20260506223506 15 94 4.8 11.3 0.15 0.51 0.51 92 1006.1
20260506223020 15 108 1.6 11.3 0.18 0.51 0.51 92 1006.1
20260506222505 15 64 3.2 11.3 0.20 0.51 0.51 92 1006.1
20260506222010 15 96 4.8 11.3 0.18 0.48 0.48 92 1006.0
20260506221521 15 35 1.6 12.9 0.15 0.46 0.46 92 1006.1
20260506221003 15 121 1.6 12.9 0.15 0.46 0.46 92 1006.1
20260506220503 15 96 3.2 12.9 0.13 0.43 0.43 92 1006.2
20260506220017 15 103 1.6 9.7 0.13 0.43 0.43 91 1006.3
20260506215506 15 57 3.2 12.9 0.13 0.43 0.43 91 1006.3
20260506215004 15 121 3.2 12.9 0.10 0.41 0.41 91 1006.3
20260506214517 15 102 3.2 12.9 0.08 0.38 0.38 91 1006.3
20260506214007 15 116 3.2 12.9 0.10 0.38 0.38 90 1006.4
20260506213502 15 71 3.2 11.3 0.08 0.36 0.36 90 1006.4
20260506213014 15 96 4.8 11.3 0.05 0.33 0.33 90 1006.4
20260506212507 15 98 3.2 14.5 0.03 0.30 0.30 90 1006.3
20260506212010 15 71 0.0 14.5 0.05 0.30 0.30 90 1006.4
20260506211512 15 98 4.8 11.3 0.05 0.30 0.30 90 1006.5
20260506211008 15 71 3.2 14.5 0.05 0.30 0.30 90 1006.6
20260506210509 15 71 3.2 14.5 0.08 0.30 0.30 90 1006.6
20260506210012 15 85 3.2 16.1 0.08 0.30 0.30 90 1006.6
20260506205507 15 85 6.4 16.1 0.10 0.30 0.30 89 1006.7
20260506205005 15 127 3.2 9.7 0.10 0.30 0.30 90 1006.7
20260506204523 15 65 1.6 12.9 0.13 0.30 0.30 90 1006.8
20260506204004 15 62 4.8 12.9 0.10 0.28 0.28 89 1006.9
20260506203507 15 98 4.8 12.9 0.10 0.28 0.28 89 1007.0
20260506203033 15 95 4.8 16.1 0.10 0.28 0.28 89 1007.0
20260506202507 15 82 4.8 19.3 0.10 0.28 0.28 89 1007.0
20260506202006 15 85 3.2 19.3 0.10 0.25 0.25 89 1007.0
20260506201520 15 71 6.4 19.3 0.10 0.25 0.25 89 1007.1
20260506201007 15 90 1.6 12.9 0.10 0.25 0.25 89 1007.0
20260506200505 15 346 3.2 11.3 0.08 0.23 0.23 89 1007.0
20260506200015 15 90 3.2 17.7 0.10 0.23 0.23 88 1007.0
20260506195508 16 104 3.2 20.9 0.08 0.20 0.20 86 1007.0
20260506195011 16 80 8.0 20.9 0.08 0.20 0.20 86 1007.1
20260506194514 16 84 6.4 14.5 0.08 0.18 0.18 86 1007.2
20260506194008 16 98 4.8 11.3 0.10 0.18 0.18 87 1007.2
20260506193508 16 116 0.0 16.1 0.10 0.18 0.18 87 1007.1
20260506193009 16 300 6.4 16.1 0.13 0.18 0.18 85 1007.2
20260506192507 16 329 6.4 14.5 0.15 0.18 0.18 85 1007.1
20260506192014 16 12 3.2 12.9 0.13 0.15 0.15 86 1007.2
20260506191524 16 98 4.8 11.3 0.13 0.15 0.15 87 1007.1
20260506191002 16 70 1.6 9.7 0.13 0.15 0.15 86 1007.2
20260506190507 16 123 4.8 14.5 0.15 0.15 0.15 85 1007.1
20260506190024 16 71 6.4 14.5 0.13 0.13 0.13 83 1007.0
20260506185502 17 117 3.2 12.9 0.13 0.13 0.13 84 1007.0
20260506185005 17 78 1.6 12.9 0.13 0.13 0.13 83 1007.1
20260506184522 17 113 4.8 16.1 0.10 0.10 0.10 80 1007.2
20260506184009 17 122 4.8 20.9 0.08 0.08 0.08 79 1007.3
20260506183507 17 77 9.7 20.9 0.08 0.08 0.08 77 1007.5
20260506183020 18 59 6.4 12.9 0.05 0.05 0.05 76 1007.4
20260506182507 18 118 1.6 6.4 0.03 0.03 0.03 76 1007.7
20260506182004 18 86 1.6 11.3 0.03 0.03 0.03 76 1007.6
20260506181515 18 113 3.2 17.7 0.03 0.03 0.03 72 1007.5
20260506181007 19 114 4.8 17.7 0.03 0.03 0.03 70 1007.7
20260506180509 20 113 4.8 22.5 0.00 0.00 0.00 67 1007.7
20260506180014 20 67 6.4 30.6 0.00 0.00 0.00 64 1007.8
20260506175505 20 127 8.0 30.6 0.00 0.00 0.00 60 1007.7
20260506175012 21 81 11.3 19.3 0.00 0.00 0.00 58 1007.6
20260506174524 21 59 4.8 17.7 0.00 0.00 0.00 57 1007.5
20260506174007 21 80 8.0 17.7 0.00 0.00 0.00 58 1007.6
20260506173506 21 96 3.2 20.9 0.00 0.00 0.00 56 1007.5
20260506173031 21 86 3.2 29.0 0.00 0.00 0.00 55 1007.5
20260506172503 22 85 8.0 29.0 0.00 0.00 0.00 54 1007.4
20260506172009 22 79 4.8 29.0 0.00 0.00 0.00 54 1007.4
20260506171527 22 345 12.9 35.4 0.00 0.00 0.00 53 1007.4
20260506171008 22 95 11.3 35.4 0.00 0.00 0.00 52 1007.3
20260506170507 22 94 6.4 25.7 0.00 0.00 0.00 52 1007.3
20260506170023 22 97 9.7 25.7 0.00 0.00 0.00 53 1007.5
20260506165508 22 80 9.7 25.7 0.00 0.00 0.00 51 1007.5
20260506165007 22 107 6.4 22.5 0.00 0.00 0.00 53 1007.6
20260506164520 22 113 11.3 22.5 0.00 0.00 0.00 52 1007.7
20260506164011 22 98 9.7 24.1 0.00 0.00 0.00 53 1007.5
20260506163506 22 33 3.2 24.1 0.00 0.00 0.00 55 1007.8
20260506163025 21 96 8.0 20.9 0.00 0.00 0.00 56 1007.9
20260506162506 21 137 8.0 25.7 0.00 0.00 0.00 56 1008.0
20260506162011 21 55 8.0 25.7 0.00 0.00 0.00 56 1008.1
20260506161515 21 97 1.6 19.3 0.00 0.00 0.00 58 1008.2
20260506161010 21 96 8.0 16.1 0.00 0.00 0.00 57 1008.2
20260506160513 21 101 4.8 17.7 0.00 0.00 0.00 57 1008.3
20260506160027 21 93 6.4 20.9 0.00 0.00 0.00 57 1008.4
20260506155506 21 60 3.2 24.1 0.00 0.00 0.00 57 1008.5
20260506155009 21 117 11.3 24.1 0.00 0.00 0.00 58 1008.6
20260506154527 21 92 6.4 19.3 0.00 0.00 0.00 59 1008.6
20260506154006 21 86 3.2 17.7 0.00 0.00 0.00 59 1008.7
20260506153510 21 87 4.8 17.7 0.00 0.00 0.00 60 1008.8
20260506153024 20 102 6.4 17.7 0.00 0.00 0.00 60 1008.8
20260506152508 20 61 4.8 17.7 0.00 0.00 0.00 61 1008.8
20260506152006 20 35 4.8 17.7 0.00 0.00 0.00 61 1009.0
20260506151526 20 83 3.2 20.9 0.00 0.00 0.00 61 1009.1
20260506151008 20 101 12.9 20.9 0.00 0.00 0.00 61 1009.1
20260506150510 20 59 6.4 20.9 0.00 0.00 0.00 61 1009.2
20260506150020 20 92 9.7 20.9 0.00 0.00 0.00 62 1009.4
20260506145511 20 105 3.2 16.1 0.00 0.00 0.00 64 1009.3
20260506145009 20 123 4.8 22.5 0.00 0.00 0.00 64 1009.2
20260506144518 20 113 0.0 22.5 0.00 0.00 0.00 65 1009.4
20260506144006 20 111 4.8 22.5 0.00 0.00 0.00 65 1009.6